FW9830 Weather Reports


Display with metric or nautical units.
time (UTC)temp
F
wind
direction
speed
MPH
gust
MPH
rain 1hr
in
rain 24hr
in
rain mn
in
humidity
%
barometer
mb
20260902232514 82 83 3.0 3.0 0.00 0.27 0.27 77 1012.3
20260902232003 82 87 3.0 4.0 0.00 0.27 0.27 75 1012.3
20260902231457 84 94 3.0 4.0 0.00 0.27 0.27 73 1012.6
20260902230952 85 166 0.0 1.0 0.00 0.27 0.27 72 1012.2
20260902230452 86 254 0.0 1.0 0.00 0.27 0.27 68 1012.2
20260902225951 86 270 0.0 2.0 0.00 0.27 0.27 67 1012.5
20260902225446 85 77 0.0 1.0 0.00 0.27 0.27 69 1012.2
20260902224945 84 102 0.0 2.0 0.00 0.27 0.27 72 1012.3
20260902224444 84 203 1.0 1.0 0.00 0.27 0.27 71 1012.3
20260902223942 83 75 1.0 2.0 0.00 0.27 0.27 74 1012.4
20260902223437 83 90 3.0 5.0 0.00 0.27 0.27 73 1012.3
20260902222936 83 94 2.0 4.0 0.00 0.27 0.27 73 1012.4
20260902222435 83 90 2.0 3.0 0.00 0.27 0.27 73 1012.3
20260902221934 83 85 2.0 3.0 0.00 0.27 0.27 73 1012.4
20260902221433 83 103 1.0 3.0 0.00 0.27 0.27 73 1012.4
20260902220929 83 117 2.0 4.0 0.00 0.27 0.27 73 1012.4
20260902220423 83 97 0.0 4.0 0.00 0.27 0.27 73 1012.7
20260902215918 83 107 2.0 5.0 0.00 0.27 0.27 74 1012.6
20260902215414 83 63 0.0 5.0 0.00 0.27 0.27 73 1012.4
20260902214910 82 87 3.0 5.0 0.00 0.27 0.27 74 1012.7
20260902214409 83 100 4.0 5.0 0.00 0.27 0.27 73 1012.7
20260902213903 82 81 2.0 4.0 0.00 0.27 0.27 73 1012.7
20260902213359 83 83 1.0 4.0 0.00 0.27 0.27 73 1012.9
20260902212858 84 14 4.0 4.0 0.00 0.27 0.27 72 1012.8
20260902212354 83 35 0.0 4.0 0.00 0.27 0.27 73 1012.9
20260902211851 83 341 5.0 5.0 0.00 0.27 0.27 74 1012.9
20260902211346 82 8 2.0 5.0 0.00 0.27 0.27 75 1012.9
20260902210841 82 6 6.0 7.0 0.00 0.27 0.27 76 1012.8
20260902210341 82 353 4.0 5.0 0.00 0.27 0.27 74 1013.0
20260902205839 81 305 2.0 5.0 0.00 0.27 0.27 75 1013.0
20260902205334 81 284 4.0 4.0 0.00 0.27 0.27 75 1012.9
20260902204830 81 301 2.0 3.0 0.00 0.27 0.27 76 1013.0
20260902204324 82 354 0.0 4.0 0.00 0.27 0.27 74 1013.2
20260902203820 81 332 3.0 6.0 0.00 0.27 0.27 75 1013.1
20260902203315 81 330 3.0 5.0 0.00 0.27 0.27 75 1013.0
20260902202814 81 321 3.0 3.0 0.00 0.27 0.27 76 1013.1
20260902202310 82 320 4.0 5.0 0.00 0.27 0.27 76 1012.9
20260902201807 81 236 4.0 5.0 0.00 0.27 0.27 74 1012.9
20260902201301 81 248 4.0 6.0 0.00 0.27 0.27 75 1013.1
20260902200756 81 246 8.0 8.0 0.00 0.27 0.27 73 1013.0
20260902200251 82 244 6.0 9.0 0.00 0.27 0.27 76 1013.1
20260902195747 82 301 3.0 8.0 0.00 0.27 0.27 75 1013.3
20260902195246 82 230 3.0 6.0 0.00 0.27 0.27 75 1013.3
20260902194740 82 277 4.0 7.0 0.00 0.27 0.27 75 1013.2
20260902194235 82 242 4.0 9.0 0.00 0.27 0.27 76 1013.4
20260902193731 82 240 7.0 7.0 0.00 0.27 0.27 74 1013.4
20260902193226 82 324 5.0 7.0 0.00 0.27 0.27 75 1013.2
20260902192724 81 250 7.0 7.0 0.00 0.27 0.27 75 1013.5
20260902192219 82 241 5.0 10.0 0.00 0.27 0.27 75 1013.2
20260902191719 81 211 4.0 10.0 0.00 0.27 0.27 76 1013.1
20260902191213 82 231 0.0 6.0 0.00 0.27 0.27 77 1013.1
20260902190709 82 239 0.0 7.0 0.00 0.27 0.27 75 1013.1
20260902190209 81 263 5.0 8.0 0.00 0.27 0.27 76 1013.1
20260902185704 82 235 5.0 6.0 0.00 0.27 0.27 76 1013.1
20260902185202 81 210 3.0 5.0 0.00 0.27 0.27 77 1013.2
20260902184655 80 294 0.0 3.0 0.00 0.27 0.27 76 1012.9
20260902184151 80 259 3.0 7.0 0.00 0.27 0.27 76 1013.4
20260902183647 80 331 0.0 5.0 0.00 0.27 0.27 75 1013.5
20260902183143 80 294 1.0 5.0 0.00 0.27 0.27 75 1013.5
20260902182639 80 220 3.0 7.0 0.00 0.27 0.27 77 1013.6
20260902182135 81 157 0.0 2.0 0.00 0.27 0.27 78 1013.7
20260902181631 79 320 3.0 6.0 0.00 0.27 0.27 81 1013.6
20260902181130 79 321 4.0 8.0 0.00 0.27 0.27 81 1013.5
20260902180630 79 312 4.0 7.0 0.00 0.27 0.27 81 1013.9
20260902180126 79 290 2.0 3.0 0.00 0.27 0.27 82 1014.1
20260902175626 78 287 3.0 6.0 0.00 0.27 0.27 81 1013.7
20260902175121 78 307 4.0 5.0 0.00 0.27 0.27 82 1013.8
20260902174618 78 334 2.0 4.0 0.00 0.27 0.27 82 1013.7
20260902174113 78 334 2.0 6.0 0.00 0.27 0.27 83 1013.8
20260902173608 78 317 4.0 4.0 0.00 0.27 0.27 82 1013.9
20260902173103 79 105 0.0 4.0 0.00 0.27 0.27 83 1013.6
20260902172556 77 286 2.0 6.0 0.00 0.27 0.27 84 1013.7
20260902172051 77 261 2.0 3.0 0.00 0.27 0.27 84 1014.0
20260902171548 78 264 3.0 8.0 0.00 0.27 0.27 83 1014.0
20260902171043 79 191 2.0 3.0 0.00 0.27 0.27 80 1014.1
20260902170538 79 254 0.0 3.0 0.00 0.27 0.27 81 1013.8
20260902170033 78 144 3.0 3.0 0.00 0.27 0.27 83 1013.9
20260902165527 76 263 0.0 3.0 0.00 0.27 0.27 83 1013.9
20260902165022 77 345 0.0 2.0 0.00 0.27 0.27 83 1014.1
20260902164517 76 165 1.0 2.0 0.00 0.27 0.27 85 1013.9
20260902164016 75 180 0.0 3.0 0.00 0.27 0.27 86 1014.0
20260902163512 75 0 2.0 5.0 0.00 0.27 0.27 87 1014.1
20260902163010 74 282 2.0 2.0 0.00 0.27 0.27 88 1014.3
20260902162510 73 210 3.0 4.0 0.00 0.27 0.27 90 1014.1
20260902162005 72 187 5.0 8.0 0.00 0.27 0.27 88 1014.1
20260902161500 71 210 5.0 6.0 0.00 0.27 0.27 89 1013.9
20260902160956 71 160 5.0 6.0 0.00 0.27 0.27 90 1014.1
20260902160451 71 169 0.0 4.0 0.00 0.27 0.27 91 1014.3
20260902155949 69 152 3.0 3.0 0.00 0.27 0.27 92 1014.4
20260902155444 69 138 3.0 4.0 0.00 0.27 0.27 92 1014.1
20260902154938 68 106 2.0 4.0 0.00 0.27 0.27 92 1013.9
20260902154434 68 166 3.0 6.0 0.00 0.27 0.27 93 1014.1
20260902153933 68 181 5.0 7.0 0.00 0.27 0.27 93 1014.1
20260902153432 68 152 4.0 5.0 0.00 0.27 0.27 93 1013.7
20260902152928 68 146 5.0 8.0 0.00 0.27 0.27 93 1013.9
20260902152424 68 160 8.0 9.0 0.00 0.27 0.27 93 1014.1
20260902151919 68 174 5.0 7.0 0.00 0.27 0.27 92 1014.5
20260902151414 68 200 5.0 6.0 0.00 0.27 0.27 92 1014.3
20260902150909 68 191 6.0 7.0 0.00 0.27 0.27 91 1014.3
20260902150405 68 171 4.0 5.0 0.00 0.27 0.27 91 1014.1
20260902145904 68 171 4.0 4.0 0.00 0.27 0.27 91 1013.8
20260902145400 68 127 0.0 3.0 0.00 0.27 0.27 92 1013.8
20260902144854 68 161 2.0 4.0 0.00 0.27 0.27 92 1014.0
20260902144351 68 141 4.0 7.0 0.00 0.27 0.27 93 1013.7
20260902143845 68 163 3.0 6.0 0.00 0.27 0.27 93 1013.8
20260902143340 67 155 3.0 7.0 0.00 0.27 0.27 93 1014.1
20260902142836 67 173 5.0 6.0 0.00 0.27 0.27 92 1014.3
20260902142332 67 162 2.0 2.0 0.00 0.27 0.27 92 1014.3
20260902141826 67 154 1.0 4.0 0.00 0.27 0.27 92 1013.9
20260902141322 67 135 3.0 5.0 0.00 0.27 0.27 92 1014.0
20260902140821 67 148 2.0 2.0 0.00 0.27 0.27 92 1014.1
20260902140317 67 164 0.0 2.0 0.00 0.27 0.27 93 1014.5
20260902135816 67 151 0.0 2.0 0.00 0.27 0.27 93 1014.6
20260902135312 67 196 2.0 3.0 0.00 0.27 0.27 93 1015.2
20260902134811 67 275 2.0 2.0 0.00 0.27 0.27 93 1015.4
20260902134307 66 350 3.0 3.0 0.00 0.27 0.27 93 1015.3
20260902133802 66 285 2.0 3.0 0.00 0.27 0.27 94 1015.3
20260902133302 66 229 2.0 2.0 0.00 0.27 0.27 94 1015.3
20260902132757 66 345 1.0 3.0 0.00 0.27 0.27 94 1015.2
20260902132252 66 240 1.0 1.0 0.00 0.27 0.27 94 1015.0
20260902131748 66 281 2.0 3.0 0.00 0.27 0.27 94 1014.9
20260902131244 66 173 5.0 7.0 0.00 0.27 0.27 94 1014.7
20260902130743 65 160 5.0 5.0 0.00 0.27 0.27 94 1014.6
20260902130239 65 263 0.0 3.0 0.00 0.27 0.27 94 1014.8
20260902125734 65 24 2.0 2.0 0.00 0.27 0.27 94 1015.0
20260902125231 65 160 5.0 8.0 0.12 0.27 0.27 94 1014.4
20260902124726 65 140 7.0 8.0 0.12 0.27 0.27 94 1014.5
20260902124222 65 199 3.0 6.0 0.00 0.25 0.25 94 1014.8
20260902123716 65 143 5.0 7.0 0.00 0.25 0.25 95 1014.5
20260902123213 65 148 5.0 9.0 0.00 0.25 0.25 95 1014.0
20260902122711 65 146 4.0 6.0 0.00 0.25 0.25 96 1014.5
20260902122207 65 139 6.0 7.0 0.00 0.25 0.25 96 1014.3
20260902121702 64 148 7.0 9.0 0.00 0.25 0.25 96 1014.4
20260902121156 64 145 6.0 9.0 0.00 0.25 0.25 96 1014.5
20260902120653 64 134 6.0 10.0 0.00 0.25 0.25 97 1014.3
20260902120149 64 143 9.0 9.0 0.00 0.25 0.25 97 1014.3
20260902115649 64 133 3.0 3.0 0.00 0.25 0.25 97 1014.7
20260902115145 64 144 3.0 4.0 0.00 0.25 0.25 97 1014.9
20260902114641 64 101 2.0 2.0 0.00 0.25 0.25 97 1014.6
20260902114136 64 149 5.0 6.0 0.00 0.25 0.25 97 1014.5
20260902113631 64 150 2.0 3.0 0.00 0.25 0.25 97 1014.5
20260902113126 64 109 1.0 5.0 0.00 0.25 0.25 97 1014.6
20260902112621 64 90 3.0 4.0 0.00 0.25 0.25 97 1014.9
20260902112118 64 94 8.0 9.0 0.00 0.25 0.25 97 1014.9
20260902111614 64 102 5.0 9.0 0.00 0.25 0.25 96 1015.2
20260902111109 64 86 7.0 9.0 0.00 0.25 0.25 96 1015.2
20260902110605 63 135 3.0 8.0 0.00 0.25 0.25 96 1015.2
20260902110100 64 86 5.0 9.0 0.00 0.25 0.25 96 1015.6
20260902105555 64 53 3.0 8.0 0.00 0.25 0.25 96 1015.7
20260902105055 64 88 5.0 9.0 0.00 0.25 0.25 96 1015.6
20260902104551 64 39 3.0 11.0 0.00 0.25 0.25 96 1015.8
20260902104045 64 94 5.0 9.0 0.02 0.25 0.25 96 1015.9
20260902103540 65 59 0.0 8.0 0.05 0.25 0.25 96 1016.0
20260902103036 66 94 2.0 8.0 0.24 0.25 0.25 96 1016.3
20260902102532 66 303 2.0 10.0 0.90 0.24 0.24 96 1017.2
20260902102029 66 3 5.0 12.0 0.90 0.20 0.20 96 1017.7
20260902101524 67 335 16.0 22.0 0.28 0.08 0.08 95 1017.6
20260902101022 68 341 24.0 34.0 0.05 0.04 0.04 94 1016.0
20260902100517 71 351 13.0 31.0 0.00 0.04 0.04 95 1016.1
20260902100012 73 305 9.0 11.0 0.00 0.04 0.04 96 1015.4
20260902095511 72 311 3.0 3.0 0.00 0.04 0.04 96 1013.7
20260902095010 72 318 3.0 4.0 0.00 0.04 0.04 96 1013.6
20260902094506 72 228 2.0 3.0 0.00 0.04 0.04 96 1013.2
20260902094002 73 183 3.0 3.0 0.00 0.04 0.04 95 1013.0
20260902093456 73 163 2.0 3.0 0.00 0.04 0.04 96 1012.9
20260902092955 73 153 4.0 6.0 0.00 0.04 0.04 96 1012.7
20260902092451 73 144 3.0 5.0 0.00 0.04 0.04 95 1012.8
20260902091951 73 135 4.0 7.0 0.00 0.04 0.04 95 1012.7
20260902091446 73 117 2.0 6.0 0.00 0.04 0.04 95 1012.8
20260902090943 73 127 4.0 5.0 0.07 0.04 0.04 95 1012.7
20260902090438 74 90 4.0 4.0 0.07 0.04 0.04 95 1012.8
20260902085936 74 135 3.0 3.0 0.00 0.02 0.02 95 1013.4
20260902085432 75 114 0.0 0.0 0.00 0.02 0.02 95 1013.6
20260902084927 75 114 0.0 2.0 0.00 0.02 0.02 95 1013.4
20260902084423 75 102 2.0 4.0 0.02 0.02 0.02 94 1013.6
20260902083919 75 230 4.0 6.0 0.00 0.02 0.02 94 1014.6
20260902083419 74 349 5.0 6.0 0.00 0.02 0.02 94 1014.3
20260902082914 74 354 4.0 6.0 0.00 0.02 0.02 94 1014.6
20260902082409 73 307 3.0 5.0 0.00 0.02 0.02 95 1015.0
20260902081906 73 270 2.0 6.0 0.00 0.02 0.02 94 1015.1
20260902081402 73 259 5.0 5.0 0.00 0.02 0.02 91 1014.1
20260902080856 73 73 2.0 4.0 0.00 0.02 0.02 92 1013.5
20260902080353 74 40 0.0 4.0 0.00 0.02 0.02 93 1013.6
20260902075852 74 18 1.0 3.0 0.00 0.02 0.02 93 1013.6
20260902075348 75 90 3.0 4.0 0.00 0.02 0.02 92 1013.1
20260902074843 75 145 7.0 7.0 0.00 0.02 0.02 91 1013.1
20260902074339 74 94 7.0 8.0 0.00 0.02 0.02 92 1013.7
20260902073834 75 97 3.0 6.0 0.00 0.02 0.02 92 1013.7
20260902073330 76 90 1.0 2.0 0.00 0.02 0.02 93 1013.8
20260902072826 76 90 0.0 2.0 0.00 0.02 0.02 92 1013.8
20260902072321 76 66 0.0 3.0 0.09 0.02 0.02 93 1013.9
20260902071818 77 354 3.0 3.0 0.12 0.02 0.02 92 1014.6
20260902071312 77 151 1.0 5.0 0.00 0.00 0.00 92 1014.6
20260902070809 76 214 3.0 5.0 0.00 0.00 0.00 93 1014.4
20260902070308 77 176 4.0 4.0 0.00 0.00 0.00 93 1014.1
20260902065807 77 198 5.0 5.0 0.00 0.00 0.00 93 1013.9
20260902065306 77 239 5.0 6.0 0.00 0.00 0.00 93 1014.3
20260902064758 78 279 0.0 2.0 0.00 0.00 0.00 92 1013.7
20260902064254 77 0 0.0 2.0 0.00 0.00 0.00 92 1013.3
20260902063749 78 0 0.0 2.0 0.00 0.00 0.00 92 1013.3
20260902063244 77 0 0.0 2.0 0.00 0.00 0.00 93 1013.3
20260902062743 77 0 0.0 3.0 0.00 0.00 0.00 93 1013.5
20260902062238 77 0 2.0 3.0 0.00 0.00 0.00 94 1013.4
20260902061737 77 343 2.0 3.0 0.00 0.00 0.00 95 1013.5
20260902061233 77 0 1.0 3.0 0.00 0.00 0.00 95 1013.5
20260902060730 77 340 1.0 2.0 0.00 0.00 0.00 95 1013.7
20260902060225 77 12 1.0 1.0 0.00 0.00 0.00 95 1013.9
20260902055720 77 0 0.0 0.0 0.00 0.00 0.00 95 1013.9
20260902055217 76 0 0.0 0.0 0.00 0.00 0.00 95 1013.9
20260902054712 77 209 0.0 2.0 0.00 0.00 0.00 95 1013.9
20260902054207 76 209 0.0 1.0 0.00 0.00 0.00 94 1013.8
20260902053703 77 295 0.0 2.0 0.00 0.00 0.00 95 1014.0
20260902053202 77 0 0.0 0.0 0.00 0.00 0.00 94 1013.8
20260902052701 76 0 0.0 0.0 0.00 0.00 0.00 94 1013.7
20260902052157 77 279 0.0 1.0 0.00 0.00 0.00 94 1013.8
20260902051655 77 0 0.0 0.0 0.00 0.00 0.00 94 1013.7
20260902051151 77 0 0.0 1.0 0.00 0.00 0.00 94 1013.6
20260902050645 77 331 0.0 2.0 0.00 0.00 0.00 94 1013.6
20260902050141 77 240 0.0 2.0 0.00 0.00 0.00 94 1013.5
20260902045635 77 352 0.0 0.0 0.00 0.00 0.00 94 1013.0
20260902045131 77 291 0.0 2.0 0.00 0.00 0.00 93 1013.5
20260902044626 77 0 0.0 1.0 0.00 0.00 0.00 93 1013.4
20260902044123 78 180 0.0 2.0 0.00 0.00 0.00 93 1013.4
20260902043617 78 222 3.0 3.0 0.00 0.00 0.00 93 1013.5
20260902043112 78 279 0.0 1.0 0.00 0.00 0.00 92 1013.6
20260902042612 78 212 0.0 4.0 0.00 0.00 0.00 92 1013.6
20260902042108 79 240 3.0 4.0 0.00 0.00 0.00 92 1013.7
20260902041607 79 257 2.0 4.0 0.00 0.00 0.00 91 1013.8
20260902041101 79 261 2.0 4.0 0.00 0.00 0.00 90 1013.6
20260902040555 79 286 4.0 4.0 0.00 0.00 0.00 90 1013.8
20260902040050 79 243 4.0 8.0 0.00 0.00 0.00 90 1013.8
20260902035549 79 238 4.0 7.0 0.00 0.00 0.00 90 1013.7
20260902035045 79 258 2.0 4.0 0.00 0.00 0.00 89 1013.8
20260902034544 80 254 5.0 7.0 0.00 0.00 0.00 89 1013.6
20260902034043 80 243 0.0 4.0 0.00 0.00 0.00 88 1013.7
20260902033542 79 276 3.0 7.0 0.00 0.00 0.00 88 1013.8
20260902033037 79 251 3.0 4.0 0.00 0.00 0.00 88 1013.4
20260902032536 79 296 3.0 4.0 0.00 0.00 0.00 88 1013.4
20260902032031 79 290 0.0 3.0 0.00 0.00 0.00 88 1013.3
20260902031520 80 325 0.0 4.0 0.00 0.00 0.00 87 1013.2
20260902031016 80 237 5.0 5.0 0.00 0.00 0.00 88 1013.3
20260902030511 80 246 2.0 3.0 0.00 0.00 0.00 88 1013.4
20260902030010 80 232 2.0 3.0 0.00 0.00 0.00 87 1013.3
20260902025505 80 231 0.0 3.0 0.00 0.00 0.00 86 1013.2
20260902025000 80 249 1.0 1.0 0.00 0.00 0.00 86 1013.0
20260902024455 81 254 0.0 4.0 0.00 0.00 0.00 85 1013.0
20260902023950 81 251 2.0 3.0 0.00 0.00 0.00 84 1012.9
20260902023447 81 225 2.0 3.0 0.00 0.00 0.00 84 1012.7
20260902022946 81 220 0.0 2.0 0.00 0.00 0.00 84 1012.7
20260902022441 81 229 3.0 3.0 0.00 0.00 0.00 84 1012.9
20260902021936 82 232 2.0 5.0 0.00 0.00 0.00 84 1012.9
20260902021431 82 231 4.0 7.0 0.00 0.00 0.00 83 1013.0
20260902020926 82 240 5.0 8.0 0.00 0.00 0.00 83 1013.1
20260902020423 82 235 5.0 8.0 0.00 0.00 0.00 83 1012.9
20260902015918 82 249 3.0 8.0 0.00 0.00 0.00 82 1013.1
20260902015414 82 260 4.0 8.0 0.00 0.00 0.00 82 1012.9
20260902014909 82 229 5.0 8.0 0.00 0.00 0.00 82 1012.9
20260902014406 83 235 5.0 9.0 0.00 0.00 0.00 82 1012.8
20260902013904 82 235 6.0 9.0 0.00 0.00 0.00 82 1012.9
20260902013400 83 244 7.0 7.0 0.00 0.00 0.00 81 1012.7
20260902012855 83 238 6.0 8.0 0.00 0.00 0.00 81 1012.7
20260902012351 82 240 5.0 6.0 0.00 0.00 0.00 82 1012.7
20260902011846 82 244 5.0 5.0 0.00 0.00 0.00 82 1012.7
20260902011341 83 234 3.0 5.0 0.00 0.00 0.00 82 1012.9
20260902010841 83 236 6.0 9.0 0.00 0.00 0.00 81 1012.8
20260902010335 83 240 6.0 7.0 0.00 0.00 0.00 81 1012.8
20260902005834 83 225 3.0 7.0 0.00 0.00 0.00 82 1012.6
20260902005329 83 231 5.0 7.0 0.00 0.00 0.00 82 1012.4
20260902004825 83 211 3.0 5.0 0.00 0.00 0.00 82 1012.5
20260902004319 83 204 2.0 6.0 0.00 0.00 0.00 82 1012.5
20260902003814 83 221 2.0 6.0 0.00 0.00 0.00 81 1012.5
20260902003309 83 233 3.0 8.0 0.00 0.00 0.00 80 1012.4
20260902002805 83 231 5.0 5.0 0.00 0.00 0.00 79 1012.4
20260902002306 84 250 3.0 4.0 0.00 0.00 0.00 78 1012.5
20260902001800 84 244 3.0 6.0 0.00 0.00 0.00 77 1012.4
20260902001255 84 253 3.0 5.0 0.00 0.00 0.00 76 1012.4
20260902000749 84 230 5.0 7.0 0.00 0.00 0.00 76 1012.3
20260902000245 84 220 2.0 6.0 0.00 0.00 0.00 76 1012.5
20260901235744 84 226 4.0 7.0 0.00 0.00 0.00 76 1012.1
20260901235240 84 228 4.0 6.0 0.00 0.00 0.00 77 1011.9
20260901234739 85 233 4.0 8.0 0.00 0.00 0.00 76 1012.3
20260901234234 85 226 5.0 6.0 0.00 0.00 0.00 77 1012.0
20260901233728 85 241 4.0 7.0 0.00 0.00 0.00 77 1012.1
20260901233225 86 247 4.0 9.0 0.00 0.00 0.00 75 1012.1